386  
ASUS41 KBOX 230310  
RWRBOX  
 
REGIONAL WEATHER ROUNDUP  
NATIONAL WEATHER SERVICE BOSTON/NORTON MA  
1100 PM EDT THU AUG 22 2019  
 
NOTE: "FAIR" INDICATES FEW OR NO CLOUDS BELOW 12,000 FEET WITH NO  
SIGNIFICANT WEATHER AND/OR S TO VISIBILITY
.  
 
MAZALL-230400-  
EASTERN MASSACHUSETTS  
 
CITY SKY/WX TMP DP RH WIND PRES REMARKS
 
BOSTON CLOUDY 81 59 47 W9 29.86R  
BEVERLY NOT AVBL  
LAWRENCE MOCLDY 75 55 49 W7 29.88R  
BEDFORD CLOUDY 78 59 51 W5 29.85R  
BLUE HILL N/A 74 64 71 W9 29.88R  
NORWOOD CLOUDY 79 64 60 W3 29.86R  
MARSHFIELD MOCLDY 79 73 83 VRB3 29.85R  
PLYMOUTH CLOUDY 77 73 87 SW3 29.86S  
TAUNTON CLOUDY 77 72 84 CALM 29.86R  
NEW BEDFORD CLOUDY 75 70 84 SW5 29.86S  

 
 
MAZALL-230400-  
CAPE COD AND THE ISLANDS  
 
CITY SKY/WX TMP DP RH WIND PRES REMARKS
 
FALMOUTH CLOUDY 75 73 94 W9 29.87R  
HYANNIS CLOUDY 79 70 74 SW6 29.85S  
CHATHAM CLOUDY 77 72 84 SW5 29.87R  
PROVINCETOWN CLOUDY 74 72 93 SW8 29.86R  
NANTUCKET FAIR 73 72 96 SW13 29.88R  
MARTHAS VNYRD CLOUDY 77 69 76 W8 29.87S  

 
 
MAZALL-230400-  
CENTRAL AND WESTERN MASSACHUSETTS  
 
CITY SKY/WX TMP DP RH WIND PRES REMARKS
 
WORCESTER CLOUDY 71 61 70 W10 29.91S  
FITCHBURG CLOUDY 74 58 57 VRB5 29.88S  
ORANGE FAIR 72 55 55 W3 29.91S  
SPRINGFIELD CLOUDY 74 54 49 NW6 29.88S  
WESTFIELD CLOUDY 73 57 57 NE5 29.89S  
NORTH ADAMS FAIR 66 55 67 W9 29.93R  
PITTSFIELD MOCLDY 67 55 65 NW7 29.94R  

 
 
RIZALL-230400-  
RHODE ISLAND  
 
CITY SKY/WX TMP DP RH WIND PRES REMARKS
 
PROVIDENCE CLOUDY 77 71 82 W6 29.88R  
NEWPORT MOCLDY 77 71 82 CALM 29.88R  
BLOCK ISLAND MOCLDY N/A N/A N/A SW13 29.89S  
SMITHFIELD CLOUDY 73 68 84 W3 29.89R  
WESTERLY FAIR 77 74 90 CALM 29.89R  

 
 
CTZALL-230400-  
CONNECTICUT  
 
CITY SKY/WX TMP DP RH WIND PRES REMARKS
 
BRADLEY INTL MOCLDY 73 64 73 CALM 29.89S  
HARTFORD LGT RAIN 75 73 93 CALM 29.88S  
BRIDGEPORT LGT RAIN 74 71 91 SW5 29.91R  
DANBURY CLOUDY 73 71 93 S3 29.93R  
GROTON FAIR 78 71 79 CALM 29.87S  
NEW HAVEN LGT RAIN 77 73 87 VRB3 29.90F  
CHESTER LGT RAIN 73 72 94 W3 29.91S  
MERIDEN LGT RAIN 73 71 93 CALM 29.89F  
WILLIMANTIC MOCLDY 73 71 93 SW5 29.90S  
OXFORD MOCLDY 72 71 97 CALM 29.93F  

 
 
MEZ002-015-021-024-NHZ003-005-008-011-012-014-VTZ005-008-230400-  
NORTHERN NEW ENGLAND  
 
CITY SKY/WX TMP DP RH WIND PRES REMARKS
 
PORTLAND ME FAIR 74 59 59 CALM 29.83S  
BANGOR ME FAIR 71 67 87 W7 29.81R  
CONCORD NH FAIR 72 59 63 VRB5 29.87R  
MANCHESTER NH MOCLDY 76 57 51 W3 29.85S  
NASHUA NH CLOUDY 74 57 55 W6 29.87S  
PORTSMOUTH NH MOCLDY 73 63 72 SW5 29.83R  
JAFFREY NH FAIR 69 55 60 VRB3 29.92S  
KEENE NH FAIR 66 61 84 CALM 29.90R  
BURLINGTON VT FAIR 62 56 80 E3 29.90R  
MT. WASHINGTON FOG 45 45 100 NW41 N/A VSB 0  

 
 
NYZ052-076-230400-  
EASTERN NEW YORK  
 
CITY SKY/WX TMP DP RH WIND PRES REMARKS
 
ALBANY FAIR 68 53 58 W9 29.93S  
NEW YORK CITY LGT RAIN 74 69 85 CALM 29.90F  

 
 
ANZALL-230400-  
MARINE OBSERVATIONS  
 
STATION/POSITION TIME TEMP WIND PRES VSBY WAVE
 
AIR SEA DIR/SP/G HT/PER  
(UTC) (F) (DEG/KT/KT) (MB) (MI) (FT/S)  
BOSTON BUOY 0250 73 70 1009.8R 1/ 9  
BUZZARDS BAY 0200 74 240/ 16/ 16 1011.8R  
NANTUCKET SOUND 0250 76 76 250/ 14/ 16 N/A 1/ 3  
MASS BAY-STELLWA 0204 72 68 270/ 8/ 8 1009.9R 1 7/8 1/11  
ISLE OF SHOALS 0200 77 270/ 16/ 16 1009.4R  
S OF BLOCK IS 0230 76 N/A 5/ 8  

 
   
.....................KEY......................
 
 
SKY/WX - SKY CONDITION/PRESENT WEATHER  
TMP - TEMPERATURE IN FAHRENHEIT  
DWPT - DEWPOINT IN FAHRENHEIT  
RH - RELATIVE HUMIDITY IN PERCENT  
WIND - DIRECTION AND SPEED IN MPH  
PRES - MEAN SEA LEVEL PRESSURE IN INCHES OF HG  
WCI - WIND CHILL INDEX  
VSB - VISIBILITY IN MILES  
HX - HEAT INDEX  
TC - TEMPERATURE IN CELSIUS  
VRB - VARIABLE WIND DIRECTION  
N/A - NOT AVAILABLE  
 
 
CLICK HERE TO GO TO PREVIOUS BULLETINS.

The Nexlab MA Page
The Nexlab RI Page
The Nexlab NH Page
The Nexlab CT Page Main Text Page